www.pogodaiklimat.ru

Погода и климат >> Архив погоды >> Россия >> Коми >> Мутный Материк


ПОГОДА в Мутном Материке

  • Прогноз погоды в Мутном Материке
  • Монитор погоды в Мутном Материке

АРХИВ ПОГОДЫ в Мутном Материке

Время (UTC), дата Ветер
(напр.,м/с)
 
Видим.   Явления Облачность Т
(С)
Тd
(С)
f
(%)
Тe
(С)
Тes
(С)
Комфортность P
(гПа)
Po
(гПа)
Тmin
(С)
Tmax
(С)
R
(мм)
R24
(мм)
S
(см)
09 12.08 С 6
{11}
50 км 8/8 960 м
[Sc]
+7.3 +1.9 69 +3 +4 1016.8 1008.1
12 12.08 СВ 5
{11}
50 км 3/3 600 м
[Sc]
+9.2 +1.4 58 +6 +8 1017.9 1009.2
15 12.08 С 3 50 км 1/0
[Ac trans]
+8.9 +1.9 61 +7 +7 1018.6 1009.9 +9.8
18 12.08 С 3 50 км ясно +5.0 +2.4 83 +2 +2 1019.3 1010.5
21 12.08 СВ 2 50 км ясно +4.1 +2.3 88 +1 +1 1020.2 1011.3
00 13.08 С 2 50 км ясно +1.6 +0.3 91 -2 -2 1020.8 1011.8
03 13.08 В 2 50 км ясно +4.0 +1.7 85 +1 +3 1021.4 1012.5 +1.6
06 13.08 СВ 3 50 км ясно +8.7 +2.8 66 +6 +12 1020.2 1011.5
09 13.08 СВ 3 50 км 1/0
[Ci fib]
+13.2 +3.0 50 +12 +19 1018.7 1010.1
12 13.08 С 3 50 км 1/0
[Cs]
+15.2 +3.4 45 +15 +18 1017.5 1009.0
15 13.08 В 3 50 км 3/0
[Ac trans Ci fib]
+14.4 +1.2 41 +14 +14 1016.6 1008.1 +15.7
18 13.08 В 2 50 км 10/0
[Ac und]
+12.2 +3.0 53 +12 +12 1015.9 1007.3
21 13.08 В 1 50 км 10/0
[Ac und]
+10.8 +4.6 66 +11 +11 1015.0 1006.4
00 14.08 СЗ 1 50 км {дождь} 10/0
[As op]
+9.3 +7.8 90 +9 +9 1014.3 1005.6
03 14.08 Ю 1 20 км слаб. дождь 10/0
[As op]
+9.8 +8.5 92 +9 +10 1013.5 1004.8 +9.3 0.8
06 14.08 В 1 50 км {дождь} 10/10 500 м
[Sc]
+10.7 +9.4 92 +10 +10 1012.4 1003.8
09 14.08 Ю 2 50 км 10/10 630 м
[Sc]
+12.8 +10.3 85 +12 +12 1011.6 1003.1
12 14.08 ЮЗ 2 50 км 10/10 540 м
[Sc]
+13.1 +9.9 81 +12 +12 1011.5 1003.0
15 14.08 ЮЗ 2 50 км 10/3 600 м
[Sc Ac As]
+12.7 +10.3 85 +12 +12 1010.9 1002.4 +14.0
18 14.08 ЮЗ 3 50 км 10/1 600 м
[Sc Ac As]
+11.8 +10.3 91 +10 +10 1011.0 1002.5
21 14.08 ЮЗ 2 20 км слаб. дождь 10/9 400 м
[Frnb As op]
+11.3 +10.3 94 +10 +10 1011.0 1002.5
00 15.08 Ю 2 20 км слаб. дождь 10/0 800 м
[As op]
+10.2 +9.0 92 +9 +9 1011.1 1002.5
03 15.08 Ю 3 50 км {дождь} 10/10 570 м
[Sc]
+10.6 +9.5 93 +8 +8 1011.2 1002.6 +10.0 2
06 15.08 Ю 4 50 км {дождь} 10/10 420 м
[Frnb]
+11.8 +10.2 90 +10 +10 1011.2 1002.6
09 15.08 Ю 4 50 км 6/5 600 м
[Sc Ci fib]
+15.3 +12.0 81 +14 +17 1011.1 1002.7
12 15.08 ЮЗ 3 50 км 10/10 1470 м
[Sc]
+15.5 +11.5 77 +15 +15 1010.9 1002.5
15 15.08 Ю 1 50 км 10/3 600 м
[Sc diur, vesp Ac trans Cc]
+16.0 +12.4 79 +17 +17 1010.4 1002.0 +16.5
18 15.08 В 2 50 км 8/4 300 м
[Cb cap Ac As Ci fib]
+14.7 +12.1 84 +14 +14 1009.1 1000.7
21 15.08 Ю 2 50 км 10/0
[Ac As]
+13.9 +11.7 87 +13 +13 1008.4 999.9
00 16.08 ЮВ 3 20 км слаб. дождь 10/4 300 м
[Frnb As op]
+12.6 +11.7 94 +11 +11 1005.5 997.1
03 16.08 ЮВ 3 4000 м слаб. морось {дождь} 10/10 210 м
[St]
+12.4 +11.4 94 +11 +11 1001.6 993.2 +12.4 4
06 16.08 ЮЗ 6
{10}
20 км слаб. дождь {морось} 10/0 570 м
[As op]
+14.0 +13.1 94 +12 +12 1000.0 991.6
09 16.08 ЮЗ 6-11
{17}
50 км в посл. час ливневой дождь 9/9 700 м
[Cb cap]
+13.3 +10.7 84 +11 +11 1001.6 993.2
12 16.08 ЮЗ 7-12
{16}
20 км слаб. дождь 10/0 800 м
[As op]
+13.1 +10.1 82 +10 +11 1002.7 994.3
15 16.08 ЮЗ 7-11
{13}
20 км слаб. дождь 10/0 800 м
[As op]
+12.4 +10.7 89 +9 +9 1003.3 994.9 +16.2 6
18 16.08 З 5
{12}
4000 м слаб. дождь 10/0 480 м
[As op]
+12.6 +11.4 92 +10 +10 1004.6 996.2
21 16.08 З 3
{11}
50 км {дождь} 10/10 800 м
[Sc]
+12.3 +10.9 91 +11 +11 1008.2 999.7
00 17.08 З 3 50 км {дождь} 10/10 500 м
[Sc]
+12.3 +11.0 92 +11 +11 1011.3 1002.8
03 17.08 З 4 50 км 10/10 1140 м
[Sc]
+12.5 +11.3 92 +10 +10 1013.5 1005.0 +12.1 4
06 17.08 З 2 50 км 10/10 870 м
[Sc]
+14.2 +11.5 84 +14 +14 1015.0 1006.5
09 17.08 Ю 2 50 км 10/10 600 м
[Cb cap Ac As]
+14.5 +11.9 84 +14 +14 1016.0 1007.5
12 17.08 З 2 20 км слаб. ливневой дождь 10/6 300 м
[Cb cap Ac As]
+13.3 +12.1 92 +13 +13 1017.7 1009.2
15 17.08 С 1 50 км {ливн. осадки} 8/5 600 м
[Cb cap Ac As]
+13.6 +12.3 92 +14 +14 1018.2 1009.7 +15.1 2
18 17.08 СЗ 2 50 км {ливн. осадки} 10/10 1110 м
[Sc]
+12.6 +11.6 94 +12 +12 1019.5 1010.9
21 17.08 С 2 50 км 10/10 1000 м
[Sc]
+11.6 +10.3 92 +10 +10 1020.7 1012.0
00 18.08 СЗ 1 50 км 10/10 1000 м
[Sc]
+10.9 +9.5 91 +11 +11 1022.3 1013.6
03 18.08 СЗ 3 50 км 9/5 600 м
[Cb cap Ac trans]
+10.3 +8.5 89 +8 +8 1023.7 1015.0 +9.5
06 18.08 СЗ 1 50 км 9/9 1320 м
[Sc]
+12.7 +9.4 80 +13 +13 1024.4 1015.8
09 18.08 З 2 50 км 10/10 1000 м
[Sc]
+14.0 +9.6 75 +14 +14 1024.9 1016.3
12 18.08 З 1 50 км 10/10 800 м
[Sc]
+14.3 +10.2 76 +15 +15 1025.5 1016.9
15 18.08 В 1 50 км 1/1 600 м
[Sc diur, vesp]
+14.3 +9.1 71 +15 +15 1025.8 1017.2 +15.2
18 18.08 СВ 2 50 км ясно +10.7 +8.9 89 +9 +9 1026.5 1017.8
21 18.08 В 1 50 км ясно +9.8 +8.4 91 +9 +9 1027.1 1018.4
00 19.08 СВ 1 50 км ясно +9.0 +8.0 93 +8 +8 1027.9 1019.1
03 19.08 Ю 1 50 км 3/0
[Ac trans Ci fib]
+11.7 +9.5 86 +12 +13 1028.3 1019.6 +7.9
06 19.08 В 2 50 км 3/0
[Cs]
+17.3 +11.0 66 +18 +23 1027.7 1019.2

 

Местоположение метеостанции Мутный Материк (Коми, Россия): широта 65.95 долгота 55.17 высота над уровнем моря 71 м.

В архиве по умолчанию представлена погода в Мутном Материке за последнюю неделю. Архивные данные за месяц целиком и за предыдущие месяцы, начиная с января 2011 года, Вы можете получить, выбрав интересующий диапазон дат из раскрывающегося списка и нажав кнопку "Ввод!".


*Определитесь, кто Вы:
робот инопланетянин человек

Внимание! Время в таблицах - всемирное. Для получения местного времени необходимо прибавить поправку, которая равна 3 ч.

Смотрите также архив погоды в соседних городах и на ближайших метеорологических станциях:

Погода в Усть-Усе (Коми, Россия) (79 км)
Погода в Усинске (Коми, Россия) (100 км)
Погода в Ижме (Коми, Россия) (120 км)
Погода в Окуневом Носу (Коми, Россия) (121 км)
Погода в Печоре (Коми, Россия) (128 км)
Погода в Усть-Цильме (Коми, Россия) (145 км)
Погода в Ираеле (Коми, Россия) (159 км)
Погода в Кедва-Воме (Коми, Россия) (206 км)
Погода в Хорей-Вере (Ненецкий АО, Россия) (207 км)
Погода в Нарьян-Маре (Ненецкий АО, Россия) (209 км)

Пояснения к столбцам:

Ветер - указаны скорость ветра в м/с - средняя за 10 мин, порывы в срок и между сроками (в фигурных скобках) и направление, откуда дует ветер: С - северный, СВ - северо-восточный, В - восточный, ЮВ - юго-восточный, Ю - южный, ЮЗ - юго-западный, З - западный, СЗ - северо-западный.
Видимость - горизонтальная дальность видимости в метрах или километрах. При видимости от 1 до 10 км при отсутствии осадков обычно наблюдается дымка, при ухудшении видимости до 1 км и менее - туман. В сухую погоду видимость может ухудшаться дымом, пылью или мглою.
Явления - указаны атмосферные явления, наблюдавшиеся в срок или в последний час перед сроком; фигурными скобками обозначены явления, наблюдавшиеся между сроками (за 1-3 часа до срока); квадратными скобками обозначены град или гололедные отложения с указанием их диаметра в мм.
Облачность - указаны через наклонную черту общая и нижняя облачность в баллах и высота нижней границы облаков в метрах; квадратными скобками обозначены формы облаков: Ci - перистые, Cs - перисто-слоистые, Cc - перисто-кучевые, Ac - высококучевые, As - высокослоистые, Sc - слоисто-кучевые, Ns - слоисто-дождевые, Cu - кучевые, Cb - кучево-дождевые. Подробнее классификацию облаков см. в Атласе облаков (PDF).
T - Температура воздуха - температура, измеренная на высоте 2 м над землей.
Td - Температура точки росы - температура, при понижении до которой содержащийся в воздухе водяной пар достигнет насыщения.
f - Относительная влажность воздуха - влажноcть воздуха, измеренная на высоте 2 м над землей.
Te - Эффективная температура - температура, которую ощущает одетый по сезону человек в тени. Характеристика душности погоды. При расчете учитывается влияние влажности воздуха и скорости ветра на теплоощущения человека.
Tes - Эффективная температура на солнце - температура, которую ощущает человек, с поправкой на солнечный нагрев. Характеристика знойности погоды. Зависит от высоты солнца над горизонтом, облачности и скорости ветра. Ночью, в пасмурную погоду, а также при ветре 12 м/с и более поправка равна нулю.
P - Атмосферное давление - приведенное к уровню моря атмосферное давление.
Po - Атмосферное давление - измеренное на уровне метеостанции атмосферное давление.
Tmin - Минимальная температура - минимум температуры воздуха на высоте 2 м над землей.
Tmax - Максимальная температура - максимум температуры воздуха на высоте 2 м над землей.
R - Количество осадков - Количество выпавших осадков за период времени, мм. При наведении курсора мыши на число - период времени, за который выпало указанное количество осадков.
R24 - Количество осадков - Количество выпавших осадков за 24 часа, мм.
S - Снежный покров - Высота снежного покрова, см. При наведении курсора мыши на число - состояние снежного покрова и степень покрытия местности в баллах.